When you browse on this site, cookies collect data to enhance your experience and personalize the content and advertising you see.
Visit our Privacy Policy to learn more. By continuing to use the site, you agree to this use of cookies and data.
  • In Czech Republic
  • List of Countries
  • For 7 days
  • Water Temperature
  • Satellite Maps
  • Weather Map
  • Weather Widgets
  • user-avatar
    Login

    Hourly Weather Sevan

    Today, 24 May, Friday

    Time Temperature Precipitation Wind Pressure Humidity
    00:00 +14°C° 0.4 mm 1 mps 642 mmHg 76%
    01:00 +14°C° 0.2 mm 1 mps 641 mmHg 77%
    02:00 +14°C° 0.2 mm 2 mps 641 mmHg 78%
    03:00 +13°C° 0 mm 2 mps 641 mmHg 79%
    04:00 +14°C° 0.1 mm 2 mps 641 mmHg 77%
    05:00 +14°C° 0.1 mm 2 mps 641 mmHg 76%
    06:00 +14°C° 0.1 mm 2 mps 641 mmHg 74%
    07:00 +16°C° 0.1 mm 3 mps 641 mmHg 68%
    08:00 +18°C° 0.1 mm 3 mps 642 mmHg 62%
    09:00 +20°C° 0 mm 3 mps 642 mmHg 56%
    10:00 +20°C° 0.1 mm 3 mps 642 mmHg 54%
    11:00 +21°C° 0.1 mm 4 mps 642 mmHg 52%
    12:00 +22°C° 0.1 mm 4 mps 642 mmHg 50%
    13:00 +22°C° 0.9 mm 4 mps 642 mmHg 50%
    14:00 +22°C° 0.9 mm 4 mps 642 mmHg 50%
    15:00 +22°C° 0.9 mm 4 mps 642 mmHg 51%
    16:00 +22°C° 1.1 mm 3 mps 642 mmHg 53%
    17:00 +21°C° 1.1 mm 3 mps 642 mmHg 55%
    18:00 +21°C° 1.1 mm 2 mps 642 mmHg 57%
    19:00 +19°C° 0.5 mm 2 mps 642 mmHg 60%
    20:00 +18°C° 0.5 mm 2 mps 642 mmHg 63%
    21:00 +16°C° 0.5 mm 2 mps 642 mmHg 66%
    22:00 +16°C° 0.3 mm 2 mps 642 mmHg 64%
    23:00 +16°C° 0.3 mm 2 mps 642 mmHg 63%

    Tomorrow, 25 May, Saturday

    Time Temperature Precipitation Wind Pressure Humidity
    00:00 +16°C° 0.3 mm 2 mps 642 mmHg 61%
    01:00 +15°C° 0.1 mm 2 mps 642 mmHg 59%
    02:00 +15°C° 0.1 mm 2 mps 642 mmHg 57%
    03:00 +15°C° 0.1 mm 2 mps 642 mmHg 55%
    04:00 +15°C° 0 mm 2 mps 643 mmHg 53%
    05:00 +16°C° 0 mm 2 mps 643 mmHg 52%
    06:00 +16°C° 0 mm 2 mps 643 mmHg 51%
    07:00 +18°C° 0 mm 3 mps 643 mmHg 46%
    08:00 +21°C° 0 mm 3 mps 644 mmHg 41%
    09:00 +23°C° 0 mm 4 mps 644 mmHg 37%
    10:00 +25°C° 0 mm 4 mps 644 mmHg 35%
    11:00 +26°C° 0 mm 5 mps 644 mmHg 34%
    12:00 +27°C° 0 mm 6 mps 644 mmHg 33%
    13:00 +27°C° 0 mm 6 mps 644 mmHg 33%
    14:00 +27°C° 0 mm 5 mps 643 mmHg 33%
    15:00 +27°C° 0 mm 5 mps 643 mmHg 33%
    16:00 +26°C° 0.1 mm 4 mps 643 mmHg 37%
    17:00 +25°C° 0.1 mm 4 mps 642 mmHg 41%
    18:00 +24°C° 0.1 mm 3 mps 642 mmHg 45%
    19:00 +21°C° 0.5 mm 3 mps 642 mmHg 48%
    20:00 +19°C° 0.5 mm 2 mps 642 mmHg 51%
    21:00 +17°C° 0.5 mm 2 mps 641 mmHg 54%
    22:00 +16°C° 0.2 mm 2 mps 641 mmHg 55%
    23:00 +16°C° 0.2 mm 1 mps 641 mmHg 57%

    Day after tomorrow, 26 May, Sunday

    Time Temperature Precipitation Wind Pressure Humidity
    00:00 +15°C° 0.2 mm 1 mps 641 mmHg 58%
    01:00 +15°C° 0 mm 1 mps 641 mmHg 58%
    02:00 +14°C° 0 mm 2 mps 641 mmHg 59%
    03:00 +14°C° 0 mm 2 mps 641 mmHg 59%
    04:00 +15°C° 0 mm 2 mps 641 mmHg 59%
    05:00 +15°C° 0 mm 2 mps 641 mmHg 58%
    06:00 +16°C° 0 mm 2 mps 641 mmHg 57%
    07:00 +18°C° 0 mm 2 mps 641 mmHg 51%
    08:00 +19°C° 0 mm 2 mps 642 mmHg 45%
    09:00 +21°C° 0 mm 2 mps 642 mmHg 38%
    10:00 +22°C° 0 mm 3 mps 642 mmHg 38%
    11:00 +23°C° 0 mm 4 mps 642 mmHg 37%
    12:00 +25°C° 0 mm 4 mps 642 mmHg 37%
    13:00 +25°C° 0 mm 4 mps 642 mmHg 36%
    14:00 +26°C° 0 mm 4 mps 641 mmHg 35%
    15:00 +26°C° 0 mm 4 mps 641 mmHg 34%
    16:00 +25°C° 0 mm 4 mps 641 mmHg 38%
    17:00 +24°C° 0 mm 3 mps 641 mmHg 41%
    18:00 +23°C° 0 mm 2 mps 641 mmHg 44%
    19:00 +20°C° 0.1 mm 2 mps 641 mmHg 50%
    20:00 +18°C° 0.1 mm 3 mps 641 mmHg 56%
    21:00 +16°C° 0.1 mm 3 mps 642 mmHg 61%
    22:00 +14°C° 0.2 mm 3 mps 642 mmHg 66%
    23:00 +13°C° 0.2 mm 3 mps 642 mmHg 71%

    27 May, Monday

    Time Temperature Precipitation Wind Pressure Humidity
    00:00 +12°C° 0.2 mm 3 mps 642 mmHg 75%
    01:00 +13°C° 0 mm 2 mps 642 mmHg 76%
    02:00 +13°C° 0 mm 2 mps 642 mmHg 76%
    03:00 +12°C° 0 mm 2 mps 642 mmHg 77%
    04:00 +13°C° 0 mm 1 mps 642 mmHg 74%
    05:00 +14°C° 0 mm 1 mps 642 mmHg 71%
    06:00 +14°C° 0 mm 1 mps 643 mmHg 68%
    07:00 +16°C° 0 mm 1 mps 643 mmHg 59%
    08:00 +18°C° 0 mm 2 mps 644 mmHg 50%
    09:00 +19°C° 0 mm 2 mps 645 mmHg 42%
    10:00 +20°C° 0 mm 2 mps 645 mmHg 39%
    11:00 +21°C° 0 mm 2 mps 645 mmHg 35%
    12:00 +22°C° 0 mm 3 mps 645 mmHg 32%
    13:00 +24°C° 0 mm 3 mps 644 mmHg 32%
    14:00 +24°C° 0 mm 3 mps 644 mmHg 31%
    15:00 +24°C° 0 mm 3 mps 644 mmHg 30%
    16:00 +24°C° 0.2 mm 2 mps 644 mmHg 35%
    17:00 +23°C° 0.2 mm 2 mps 644 mmHg 40%
    18:00 +22°C° 0.2 mm 1 mps 644 mmHg 45%
    19:00 +19°C° 0.3 mm 2 mps 644 mmHg 53%
    20:00 +17°C° 0.3 mm 3 mps 644 mmHg 60%
    21:00 +14°C° 0.3 mm 4 mps 644 mmHg 67%
    22:00 +14°C° 0.2 mm 3 mps 644 mmHg 69%
    23:00 +13°C° 0.2 mm 3 mps 644 mmHg 70%

    28 May, Tuesday

    Time Temperature Precipitation Wind Pressure Humidity
    00:00 +13°C° 0.2 mm 3 mps 644 mmHg 71%
    01:00 +12°C° 0 mm 3 mps 644 mmHg 72%
    02:00 +12°C° 0 mm 3 mps 644 mmHg 72%
    03:00 +11°C° 0 mm 3 mps 644 mmHg 73%
    04:00 +12°C° 0 mm 3 mps 645 mmHg 73%
    05:00 +13°C° 0 mm 2 mps 645 mmHg 72%
    06:00 +14°C° 0 mm 2 mps 645 mmHg 71%
    07:00 +16°C° 0 mm 2 mps 646 mmHg 65%
    08:00 +19°C° 0 mm 1 mps 646 mmHg 59%
    09:00 +20°C° 0 mm 1 mps 647 mmHg 52%
    10:00 +21°C° 0.2 mm 1 mps 647 mmHg 50%
    11:00 +22°C° 0.2 mm 1 mps 647 mmHg 48%
    12:00 +23°C° 0.2 mm 2 mps 647 mmHg 45%
    13:00 +24°C° 0.6 mm 2 mps 646 mmHg 45%
    14:00 +24°C° 0.6 mm 2 mps 646 mmHg 44%
    15:00 +24°C° 0.6 mm 2 mps 646 mmHg 44%
    16:00 +23°C° 0.4 mm 2 mps 646 mmHg 48%
    17:00 +22°C° 0.4 mm 3 mps 646 mmHg 52%
    18:00 +21°C° 0.4 mm 3 mps 645 mmHg 57%
    19:00 +19°C° 0.1 mm 3 mps 646 mmHg 63%
    20:00 +17°C° 0.1 mm 4 mps 646 mmHg 70%
    21:00 +15°C° 0.1 mm 4 mps 646 mmHg 77%
    22:00 +14°C° 0 mm 4 mps 645 mmHg 77%
    23:00 +13°C° 0 mm 4 mps 645 mmHg 77%

    29 May, Wednesday

    Time Temperature Precipitation Wind Pressure Humidity
    00:00 +12°C° 0 mm 4 mps 645 mmHg 77%
    01:00 +12°C° 0 mm 3 mps 645 mmHg 75%
    02:00 +12°C° 0 mm 3 mps 645 mmHg 74%
    03:00 +11°C° 0 mm 3 mps 645 mmHg 73%
    04:00 +12°C° 0 mm 3 mps 645 mmHg 71%
    05:00 +14°C° 0 mm 2 mps 645 mmHg 69%
    06:00 +14°C° 0 mm 2 mps 645 mmHg 66%
    07:00 +16°C° 0 mm 2 mps 646 mmHg 58%
    08:00 +19°C° 0 mm 1 mps 646 mmHg 49%
    09:00 +21°C° 0 mm 1 mps 646 mmHg 41%
    10:00 +23°C° 0 mm 1 mps 646 mmHg 39%
    11:00 +24°C° 0 mm 1 mps 646 mmHg 37%
    12:00 +25°C° 0 mm 1 mps 646 mmHg 35%
    13:00 +25°C° 0 mm 1 mps 646 mmHg 35%
    14:00 +26°C° 0 mm 2 mps 646 mmHg 36%
    15:00 +26°C° 0 mm 2 mps 645 mmHg 36%
    16:00 +25°C° 0.3 mm 2 mps 645 mmHg 41%
    17:00 +25°C° 0.3 mm 2 mps 645 mmHg 46%
    18:00 +24°C° 0.3 mm 2 mps 645 mmHg 51%
    19:00 +21°C° 0.3 mm 2 mps 645 mmHg 58%
    20:00 +19°C° 0.3 mm 3 mps 645 mmHg 66%
    21:00 +17°C° 0.3 mm 3 mps 644 mmHg 74%
    22:00 +16°C° 0.1 mm 3 mps 644 mmHg 74%
    23:00 +14°C° 0.1 mm 3 mps 644 mmHg 74%
    Show more